AirNav   TITAN Aviation Fuels
 
 755 users online  

KGKY Arlington Municipal Airport
Arlington, Texas, USA

GOING TO ARLINGTON?


FAA INFORMATION EFFECTIVE 03 NOVEMBER 2022

Location

FAA Identifier: GKY
Lat/Long: 32-39-49.9000N 097-05-39.4000W
32-39.831667N 097-05.656667W
32.6638611,-97.0942778
(estimated)
Elevation: 628.2 ft. / 191.5 m (surveyed)
Variation: 06E (2000)
From city: 4 miles S of ARLINGTON, TX
Time zone: UTC -6 (UTC -5 during Daylight Saving Time)
Zip code: 76018

Airport Operations

Airport use: Open to the public
Activation date: 05/1971
Control tower: yes
ARTCC: FORT WORTH CENTER
FSS: FORT WORTH FLIGHT SERVICE STATION
NOTAMs facility: GKY (NOTAM-D service available)
Attendance: CONTINUOUS
Wind indicator: lighted
Segmented circle: yes
Lights: MIRL RWY 16/34 PRESET MED INTST; HIGHER INTST BY ATCT REQ. WHEN ATCT CLSD ACTVT MALSR RWY 34 - CTAF. PAPI RWYS 16 & 34 OPR CONSLY.
Beacon: white-green (lighted land airport)
Operates sunset to sunrise.

Airport Communications

CTAF: 128.625
WX ASOS: 127.375 (817-557-0251)
ARLINGTON GROUND: 121.875 [0700-2100]
ARLINGTON TOWER: 128.625 [0700-2100]
REGIONAL APPROACH: 135.975
REGIONAL DEPARTURE: 135.975
CLEARANCE DELIVERY: 121.875 118.85 ;WHEN GKY TWR CLSD
DODJE STAR: 125.2 125.9
GARLAND DP: 135.975
JOE POOL DP: 135.975
KNEAD STAR: 135.975
LIKES STAR: 125.8 ;SOUTH 135.975 ;NORTH
MOTZA STAR: 118.1 ;SOUTH 125.8 ;NORTH
NANDR RNAV DP: 135.975
REEKO STAR: 125.2
SANGR STAR: 124.3
SASIE STAR: 124.3
SLUGG STAR: 125.8 ;SOUTH 135.975 ;NORTH
SWVAY STAR: 135.975
WESAT STAR: 118.1 ;SOUTH 125.8 ;NORTH
WX AWOS-3P at GPM (3 nm NE): 118.475 (972-606-1433)
WX ASOS at RBD (11 nm E): PHONE 214-330-5317
WX AWOS-3PT at FWS (12 nm SW): 120.025 (817-426-4172)
WX ASOS at DFW (14 nm N): PHONE 972-615-2608
WX AWOS-3 at JWY (15 nm SE): 119.575 (972-937-4747)
WX AWOS-3 at 49T (16 nm NE): 135.425 (214-670-1243)
WX ASOS at DAL (16 nm NE): PHONE 214-353-1551
WX ASOS at FTW (16 nm NW): PHONE 817-740-3346
WX AWOS-3PT at LNC (20 nm E): 118.975 (972-227-0471)

Nearby radio navigation aids

VOR radial/distance  VOR name  Freq  Var
TTTr186/12.6MAVERICK VOR/DME113.1006E
FUZr156/14.2RANGER VORTAC115.7006E
CVEr209/16.6COWBOY VOR/DME116.2006E

 
NDB name  Hdg/Dist  Freq  Var  ID
MESQUITE250/29.824803EPQF .--. --.- ..-.

Airport Services

Fuel available: 100LL JET-A
100LL:SELF SERVE FUEL WITH MAJOR CREDIT CARD.
Parking: hangars and tiedowns
Airframe service: MAJOR
Powerplant service: MAJOR
Bottled oxygen: LOW
Bulk oxygen: NONE

Runway Information

Runway 16/34

Dimensions: 6080 x 100 ft. / 1853 x 30 m
Surface: concrete, in good condition
Weight bearing capacity: 
Single wheel: 60.0
Runway edge lights: medium intensity
RUNWAY 16  RUNWAY 34
Latitude: 32-40.322683N32-39.341885N
Longitude: 097-05.779817W097-05.533875W
Elevation: 628.2 ft.596.9 ft.
Traffic pattern: leftleft
Runway heading: 162 magnetic, 168 true342 magnetic, 348 true
Markings: nonprecision, in good conditionprecision, in good condition
Visual slope indicator: 4-light PAPI on left (3.00 degrees glide path)4-light PAPI on left (3.00 degrees glide path)
Approach lights: MALSR: 1,400 foot medium intensity approach lighting system with runway alignment indicator lights
Runway end identifier lights: yesno
Touchdown point: yes, no lightsyes, no lights
Instrument approach: ILS/DME

Airport Ownership and Management from official FAA records

Ownership: Publicly-owned
Owner: CITY OF ARLINGTON
PO BOX 90231
ARLINGTON, TX 76004-3231
Phone 817-459-5571
Manager: TRENT BALLARD
5000 S. COLLINS
ARLINGTON, TX 76018-3231
Phone 817-459-5571
SUITE 100

Airport Operational Statistics

Aircraft based on the field: 247
Single engine airplanes: 210
Multi engine airplanes: 23
Jet airplanes: 6
Helicopters: 7
Gliders airplanes: 1
    
Aircraft operations: avg 242/day *
54% transient general aviation
44% local general aviation
1% air taxi
<1% military
<1% commercial
* for 12-month period ending 31 December 2015

Additional Remarks

EXTSV HEL TFC WEST OF RWY.
HEL TEST FAC AT ARPT, 1975 OPNS 15200, MOSTLY FM PVT HELIPAD ADJOINING LNDG AREA.

Instrument Procedures

NOTE: All procedures below are presented as PDF files. If you need a reader for these files, you should download the free Adobe Reader.

NOT FOR NAVIGATION. Please procure official charts for flight.
FAA instrument procedures published for use from 03 November 2022 at 0901Z to 01 December 2022 at 0900Z.

 
STARs - Standard Terminal Arrivals
DODJE SIX   2 pages: [1] [2] (747KB)
MOTZA ONE   2 pages: [1] [2] (477KB)
REEKO THREE (RNAV)   download (208KB)
SASIE SIX   2 pages: [1] [2] (498KB)
SWVAY FOUR (RNAV)   download (235KB)
TRUUK TWO (RNAV)   download (215KB)
WESAT TWO (RNAV)   download (203KB)
 
IAPs - Instrument Approach Procedures
ILS OR LOC/DME RWY 34   download (279KB)
RNAV (GPS) RWY 34   download (234KB)
NOTE: Special Alternate Minimums apply   download (117KB)
 
Departure Procedures
DALLAS ONE   2 pages: [1] [2] (386KB)
GARLAND THREE   2 pages: [1] [2] (369KB)
JOE POOL FIVE   2 pages: [1] [2] (578KB)
KINGDOM THREE   2 pages: [1] [2] (383KB)
KUSSO ONE (RNAV)   2 pages: [1] [2] (337KB)
NANDR ONE (RNAV)   2 pages: [1] [2] (287KB)
SWABR ONE (RNAV)   2 pages: [1] [2] (334KB)
TEXOMA FOUR   2 pages: [1] [2] (487KB)
WORTH NINE   2 pages: [1] [2] (451KB)
NOTE: Special Take-Off Minimums/Departure Procedures apply   download

Other nearby airports with instrument procedures:

KGPM - Grand Prairie Municipal Airport (3 nm NE)
KRBD - Dallas Executive Airport (11 nm E)
KFWS - Fort Worth Spinks Airport (12 nm SW)
KDFW - Dallas-Fort Worth International Airport (14 nm N)
KJWY - Mid-Way Regional Airport (15 nm SE)
KDAL - Dallas Love Field Airport (16 nm NE)
KFTW - Fort Worth Meacham International Airport (16 nm NW)
KNFW - Fort Worth Naval Air Station JRB (Carswell Field) Airport (19 nm W)
KLNC - Lancaster Regional Airport (20 nm E)
 
Loc | Ops | Rwys | IFR | FBO | Links
Com | Nav | Svcs | Stats | Notes

City of Fort Worth
 
Area around KGKY (Arlington Municipal Airport)
 
Road maps at: MapQuest Bing Google
 
Aerial photo
WARNING: Photo may not be current or correct
Aerial photo of KGKY (Arlington Municipal Airport)
Photo by Jeff Law
Photo taken 19-Feb-2013
looking northwest.

Do you have a better or more recent aerial photo of Arlington Municipal Airport that you would like to share? If so, please send us your photo.

 
Sectional chart

 
Airport diagram
CAUTION: Diagram may not be current
Diagram of KGKY (Arlington Municipal Airport)
 
Airport distance calculator
Flying to Arlington Municipal Airport? Find the distance to fly.

From to KGKY

Sunrise and sunset
Times for 28-Nov-2022
 Local
(UTC-6)
 Zulu
(UTC)
Morning civil twilight06:4412:44
Sunrise07:1113:11
Sunset17:2223:22
Evening civil twilight17:4823:48

Current date and time
Zulu (UTC)  28-Nov-2022 12:51:12
Local (UTC-6)  28-Nov-2022 06:51:12
 
METAR
KGKY 281153Z AUTO 00000KT 10SM CLR 03/02 A2997 RMK AO2 SLP149 T00280017 10061 20028 53001
KGPM 
3nm NE 
281235Z AUTO 00000KT 10SM CLR 06/06 A3000 RMK AO2 T00550055
KRBD 
12nm E 
281153Z AUTO 21003KT 10SM CLR 05/03 A2997 RMK AO2 SLP147 T00500033 10078 20028 55002
KFWS 
12nm SW 
281235Z AUTO 00000KT 10SM CLR 02/02 A2998 RMK AO2 T00230017
KDFW 
15nm N 
281153Z 21004KT 10SM CLR 06/04 A2995 RMK AO2 SLP141 T00560039 10083 20044 53000
KJWY 
15nm SE 
281235Z AUTO 00000KT 7SM CLR 03/03 A2999 RMK AO2 T00300030
KDAL 
17nm NE 
281153Z 00000KT 10SM CLR 04/03 A2998 RMK AO2 SLP150 T00440033 10078 20039 53001 $
KFTW 
17nm NW 
281153Z 00000KT 10SM CLR 04/04 A2996 RMK AO2 SLP146 T00440044 10072 20033 53001
KNFW 
19nm W 
281152Z 29007KT 10SM CLR 04/02 A2997 RMK AO2 SLP134 T00440022 10067 20033 53001 $
KLNC 
20nm E 
281235Z AUTO 00000KT 10SM CLR 02/02 A3000 RMK AO2 T00240017
TAF
KGKY 281130Z 2812/2912 18010KT P6SM FEW250 FM290900 19013KT P6SM BKN018
KDFW 
15nm N 
281130Z 2812/2918 18010KT P6SM FEW250 FM290900 18013KT P6SM BKN016 FM291600 21016KT P6SM FEW016
KDAL 
17nm NE 
281130Z 2812/2912 18009KT P6SM FEW250 FM290900 18012KT P6SM BKN016
KFTW 
17nm NW 
281130Z 2812/2912 18010KT P6SM FEW250 FM290900 19013KT P6SM BKN017
KNFW 
19nm W 
2807/2907 30010KT 9999 SKC QNH2993INS BECMG 2817/2819 18013G18KT 9999 FEW050 QNH2979INS BECMG 2905/2906 8000 BR OVC008 510023 QNH2977INS T03/2811Z T18/2820Z
NOTAMs
Click for the latest NOTAMs
NOTAMs are issued by the DoD/FAA and will open in a separate window not controlled by AirNav.

 

 
 

FBO, Fuel Providers, and Aircraft Ground Support

  
 Business Name 
 
 Contact 
 
 Services / Description 
 
Fuel Prices
 
Comments
  
Harrison Aviation ASRI 131.325
817-557-0350
toll-free 888-383-5354
[web site]
[email]
Arlington is home to the Dallas Cowboy Stadium and Arlington Municipal Airport is located in the heart of the DFW metroplex just 6 Miles from AT&T Stadium and quick access to I-20 and Hwy 360.
Come for your business meeting and then stay for the entertation ainment (Dallas Cowboys, Texas Rangers, Texas Live, Lone Star Park, Nokia Theater)
More info and photos of Harrison Aviation
 
NATA Safety 1st   U.S. Government Contract Fuel   Crew cars   National Business Aviation Association  
 
Titan
100LL Jet A
FS $6.10 $6.70 
SS $5.50 --- 
 Updated 22-Nov-2022
 
   2 read write
Alternatives at nearby airports
IMPORTANT: Note that the FBOs below are NOT at KGKY but at other nearby airports. Do not expect services from these FBOs to be available at KGKY.
Located at KRBD
Ambassador Jet Center
ASRI 131.90
214-623-8800
214-251-6512
[web site]
[email]
At KRBD (Dallas Executive Airport), 11 miles E

Premier FBO situated minutes south of Downtown Dallas in the growing Southern Sector of the Dallas warehouse and distribution district.

No daily ramp or landing fees (overnight ramp and hangar fees do apply.)

Enjoy unmatched personal service and inviting facilities designed to make your stay enjoyable.

Give one of our Customer Service Agents a call today and let us arrange your next Metro Dallas area visit..
More info and photos of Ambassador Jet Center (KRBD)
Located at KRBD
Avfuel
100LL Jet A
FS $6.25 $6.25 
GUARANTEED
AirBossMEMBER
PRICING
FS $6.15 $6.10 
 
   30 read write
FS=Full service
SS=Self service
Update Fuel Prices
 

Aviation Businesses, Services, and Facilities

  
 Business Name 
 
 Contact 
 
 Services / Description 
 
Distance
 
Comments
  
 Van Bortel Aircraft
817-468-7788
toll-free 800-759-4295
[web site]
[email]
Aircraft maintenance, Avionics sales and service, Aircraft modifications, Aircraft parts, Aviation accessories, Aircraft sales / leasing / brokerage
 
Cessna Service Center   Garmin  
 
More info about Van Bortel Aircraft
on airport  
   write
 

Would you like to see your business listed on this page?

 If your business provides an interesting product or service to pilots, flight crews, aircraft, or users of the Arlington Municipal Airport, you should consider listing it here.  To start the listing process, click on the button below
 
Add a business
 

Other Pages about Arlington Municipal Airport

www.arlingtontx.gov/...
 
Update a link
 
Copyright © AirNav, LLC. All rights reserved. Privacy Policy  Contact